User: anonymous   Login
Location: Unspecified
(0.0000°N, 0.0000°E)
Time: 20:05:33
(UTC+00:00)
Language:

UNISAT 5 - Orbit

View from above orbital plane
View from above orbital plane
View from above satellite
View from above satellite

Ground track
Ground track

The orbit data is extracted from the following two-line orbital elements,

1 39421U 13066F   19341.13730741  .00000162  00000-0  23249-4 0  9992
2 39421  97.5271   8.4013 0032265 127.3056 233.1110 14.87782009327896
Epoch (UTC): 07 December 2019 03:17:43
Eccentricity: 0.0032265
inclination: 97.5271°
perigee height: 582 km
apogee height: 627 km
right ascension of ascending node: 8.4013°
argument of perigee: 127.3056°
revolutions per day: 14.87782009
mean anomaly at epoch: 233.1110°
orbit number at epoch: 32789

The dashed part of the orbit path shows where the satellite is in the earth's shadow,  

DLR